Regional Weather Roundup
Issued by NWS

Home | Current Version | Previous Version | Text Only | Print | Product List | Glossary Off
Versions: 1 2 3 4 5 6 7 8 9 10 11 12 13 14 15 16 17 18 19 20 21 22 23 24 25 26 27

000
ASUS45 KTFX 181010
RWRMT
MONTANA REGIONAL WEATHER ROUNDUP
NATIONAL WEATHER SERVICE GREAT FALLS MT
300 AM MST WED JAN 18 2017

NOTE: "FAIR" INDICATES FEW OR NO CLOUDS BELOW 12000 FEET WITH NO
SIGNIFICANT WEATHER AND/OR OBSTRUCTIONS TO VISIBILITY.

MTZ001>007-043-181100-
WEST OF THE DIVIDE

CITY           SKY/WX    TMP DP  RH WIND       PRES   REMARKS
KALISPELL      CLOUDY    22  18  85 CALM      29.78S
MISSOULA       CLOUDY    16  12  84 CALM      29.85F
BUTTE          CLOUDY     6   2  83 S5        29.86S
MULLAN PASS    SNOW      27  25  92 VRB6      29.72S VSB 1/2 WCI  20
ANACONDA         N/A     32  16  51 S12G17    29.81R WCI  23
DEER LODGE       N/A     36  21  55 SW5       29.81F
EUREKA           N/A     28  23  80 CALM      29.75R
HAMILTON         N/A     16   9  73 NW8       29.79F WCI   5
RONAN            N/A     16  12  84 MISG      29.82F
$$

MTZ008-052>055-181100-
SOUTHWEST MONTANA

CITY           SKY/WX    TMP DP  RH WIND       PRES   REMARKS
BOZEMAN        CLOUDY     8   3  80 E3        29.86F
DILLON         CLOUDY    28  10  46 SW9       29.90F WCI  19
W YELLOWSTONE  CLOUDY   -13 -18  77 CALM      30.11R
ENNIS          CLEAR     27  16  63 SE12      29.94S WCI  16
$$

MTZ009-010-012-014-046-048-049-054-181100-
EAST SLOPES AND CENTRAL MONTANA

CITY           SKY/WX    TMP DP  RH WIND       PRES   REMARKS
CUT BANK       PTCLDY    46  24  42 SW8       29.57S
GREAT FALLS    CLOUDY    41  25  53 SW18      29.65S
MALMSTROM AFB  CLOUDY    43  27  54 SW29      29.64F
HELENA         CLOUDY     9   4  80 CALM      29.82F
AUGUSTA          N/A     35  24  65 S14       29.59F WCI  25
BOWMANS CRNR     N/A     33  22  64 S32G40    29.63F WCI  18
CHOTEAU          N/A     41  25  52 S23       29.60F
POWER            N/A     38  26  60 S18       29.62S WCI  29
RAYNESFORD       N/A     49  24  37 SW7       29.66F
ULM              N/A     42  26  54 MISG      29.66F
$$

MTZ011-013-016-021-045-047-050-051-181100-
NORTH CENTRAL MONTANA

CITY           SKY/WX    TMP DP  RH WIND       PRES   REMARKS
HAVRE          CLEAR     36  29  75 SW13      29.56F WCI  27
LEWISTOWN      CLOUDY    43  27  53 SW26      29.68F
N BAR RANCH      N/A     39  27  60 N5        29.70F
CHINOOK          N/A     34  28  80 NE6       29.58F WCI  29
DENTON           N/A     38  27  63 S12       29.63F WCI  31
GEYSER           N/A     47  27  44 SW9       29.64F
GRASS RANGE      N/A     47  28  47 W5        29.64F
JUDITH GAP       N/A     40  24  53 SW15      29.72F
ROY              N/A     51  29  42 MISG      29.63S
STANFORD         N/A     44  27  51 S14       29.66F
WINIFRED         N/A     47  27  46 SW22      29.63F
$$

MTZ017>020-022>027-061-062-181100-
NORTHEAST MONTANA

CITY           SKY/WX    TMP DP  RH WIND       PRES   REMARKS
GLASGOW        CLOUDY    27  23  85 SE9       29.64F WCI  18
JORDAN           N/A     38  27  64 NW8       29.67F
SIDNEY         CLOUDY    29  22  75 S16       29.71F WCI  17
WOLF POINT     CLOUDY    14   9  80 NE3       29.68F
PLENTYWOOD       N/A     36  27  69 E5        29.63F
POPLAR           N/A     27  25  93 CALM      29.68F
$$

MTZ028>42-056>058-181100-
SOUTHCENTRAL AND SOUTHEAST MONTANA

CITY           SKY/WX    TMP DP  RH WIND       PRES   REMARKS
BAKER          CLOUDY    36  22  56 NW10      29.78R WCI  28
BILLINGS       CLOUDY    31  16  54 SW25G33   29.76F WCI  17
LIVINGSTON     CLOUDY    42  14  32 SW30G46   29.77F
MILES CITY     CLOUDY    26  16  65 S9        29.77F WCI  17
BIG TIMBER     CLEAR     39  16  38 W22G29    29.80F WCI  29
FORSYTH          N/A     30  16  55 CALM      29.76F
HARLOWTON        N/A     34  20  57 W13       29.74F WCI  25
LAUREL           N/A     30  14  51 S25       29.77F WCI  16
ROUNDUP          N/A     33  17  52 SW6       29.68S WCI  27
$$

REGIONAL REPORTS...DAKOTAS

CITY           SKY/WX    TMP DP  RH WIND       PRES   REMARKS
WILLISTON      CLOUDY    28  21  75 SE5       29.69S
MINOT          CLOUDY    34  26  72 SW14      29.64F WCI  25
DICKINSON      CLEAR     35  22  58 W9        29.72S WCI  28
BEACH            N/A     34  23  64 SW13      29.78S WCI  25
CROSBY           N/A     30  27  86 S22       29.64F WCI  17
TIOGA            N/A     32  28  86 SW14      29.68F WCI  22
WATFORD CITY     N/A     32  25  74 SW10      29.70S WCI  24
BISMARCK       CLOUDY    19  14  81 NE3       29.76R
GRAND FORKS    CLOUDY    27  18  69 S14       29.69S WCI  16
FARGO          CLOUDY    21  16  81 S10       29.76R WCI  10
BUFFALO SD       N/A     34  22  61 W12       29.73F WCI  25
RAPID CITY     CLEAR     31  19  61 NW6       29.84F WCI  25
$$

REGIONAL REPORTS...WYOMING/IDAHO/WASHINGTON

CITY           SKY/WX    TMP DP  RH WIND       PRES   REMARKS
GILLETTE       CLOUDY    35  17  47 SW23      29.85F WCI  23
SHERIDAN       CLOUDY    20  14  77 NW12      29.79F WCI   8
BUFFALO WY     CLOUDY    31  18  58 S13       29.84F WCI  21
CODY           CLOUDY    14   8  77 VRB3      29.87F
YELLOWSTONE LA   N/A     -6  -9  86 CALM      30.08F
IDAHO FALLS    CLOUDY    -5  -8  87 N6        30.15F WCI -18
SALMON         CLOUDY    -9  -9 100 CALM      30.13S
BOISE          PTCLDY     9   5  84 CALM      30.12S FOG
SPOKANE        LGT SNOW  32  30  92 SE16      29.74F VSB 1   WCI  21
$$

REGIONAL REPORTS...ALBERTA

CITY           SKY/WX    TMP DP  RH WIND       PRES   REMARKS
EDMONTON       CLEAR     34  23  64 SE5       29.20F
CALGARY        PTCLDY    32  27  80 VRB2      29.30F
LETHBRIDGE     CLEAR     39  32  75 SW17      29.47S WCI  30
MEDICINE HAT   MOCLDY    45  30  57 SW15      29.44F
WATERTON GATE    N/A     41  28  60 SW37G56     N/A
CARDSTON         N/A     45  28  53 SW15G26     N/A
MILK RIVER       N/A     45  28  53 SW21G29     N/A
$$

REGIONAL REPORTS...SASKATCHEWAN

CITY           SKY/WX    TMP DP  RH WIND       PRES   REMARKS
SWIFT CURRENT  CLEAR     39  30  70 SW12      29.46S WCI  32
REGINA         PTCLDY    32  28  86 SW10      29.53F WCI  24
SASKATOON      MOCLDY    30  27  86 S8        29.42S WCI  23
CYPRESS HILLS    N/A     34  25  69 S12         N/A  WCI  25
VAL MARIE        N/A     25  21  86 SW5         N/A
ROCKGLEN         N/A     37  28  70 SW14        N/A  WCI  29
$$




USA.gov is the U.S. government's official web portal to all federal, state and local government web resources and services.